Weather Roundup
Issued by NWS Chicago, IL

Home | Current Version | Previous Version | Graphics & Text | Print | Product List | Glossary On
Versions: 1 2 3 4 5 6 7 8 9 10 11 12 13 14 15 16 17 18 19 20 21 22 23 24 25 26 27 28 29 30 31 32 33 34 35 36 37 38 39 40 41 42 43 44 45 46 47 48 49 50
000
NZUS59 KLOT 302309
HRRLOT

CHICAGO AREA WEATHER ROUNDUP
NATIONAL WEATHER SERVICE CHICAGO/ROMEOVILLE IL
600 PM CDT TUE AUG 30 2016

NOTE: "FAIR" INDICATES FEW OR NO CLOUDS BELOW 12,000 FEET WITH NO
SIGNIFICANT WEATHER AND/OR OBSTRUCTIONS TO VISIBILITY.

* THESE STATIONS ARE NOT UNDER NWS QUALITY CONTROL. THEY ALSO MAY NOT
  REPORT WEATHER SUCH AS PRECIPITATION OR FOG.

ILZ005-006-012>014-019>023-310000-
NORTHEAST ILLINOIS

CITY           SKY/WX    TMP DP  RH WIND       PRES   REMARKS
OHARE          CLOUDY    77  67  71 N8        30.06S
MIDWAY         PTSUNNY   80  67  64 N12       30.05S HX  82
AURORA         CLOUDY    76  69  79 N12       30.06S
LANSING*       MOSUNNY   81  72  75 W6        30.04F HX  85
JOLIET*        CLOUDY    83  72  69 CALM      30.06S HX  88
WAUKEGAN       CLOUDY    73  68  84 VRB3      30.05F
DUPAGE AIRPORT PTSUNNY   78  69  73 N9        30.06S HX  80
WHEELING       CLOUDY    77  67  71 CALM      30.06F
KANKAKEE*      PTSUNNY   80  72  75 W5        30.06F HX  84
MORRIS*        CLOUDY    82  71  71 NW3       30.04F HX  86
LEWIS AIRPORT* CLOUDY    81  73  77 NW3       30.06F HX  85
NORTHERLY ISL    N/A     75  67  76 N12         N/A
$$

WIZ051-052-058>065-066-070>072-310000-
SOUTHEAST WISCONSIN

CITY           SKY/WX    TMP DP  RH WIND       PRES   REMARKS
MILWAUKEE      CLOUDY    76  71  85 SW7       30.04F
KENOSHA*       CLOUDY    72  70  93 W5        30.05F
RACINE*        CLOUDY    73  70  90 W7        30.06F
BURLINGTON     CLOUDY    69  68  96 SW6       30.05F
WAUKESHA       MOSUNNY   73  66  78 SW7       30.06F
$$

INZ001>003-010>013-019-020-310000-
NORTHWEST INDIANA

CITY           SKY/WX    TMP DP  RH WIND       PRES   REMARKS
GARY*          PTSUNNY   82  68  61 W12       30.05S HX  85
MICHIGAN CITY* NOT AVBL
RENSSELAER*    NOT AVBL
VALPARAISO     MOSUNNY   80  71  74 W6        30.05F HX  84
$$

LMZ740>746-310000-
SOUTHERN LAKE MICHIGAN

STATION/POSITION TIME  SKY/WX   TEMP WIND        PRES    VSBY
                                AIR  DIR/SP/G
                 (UTC)          (F)  (DEG/KT/KT) (MB)    (MI)
HARRISON CRIB    2200            80  100/  2/  4   N/A
BURNHAM HARBOR   2300            74  340/  8/ 18   N/A
CALUMET HARBOR   2200            83  260/  4/  8 1017.0F
BURNS HARBOR     2200            80   50/  5/  6 1017.6F
MICHIGAN CITY    2200            78  270/  2/  2   N/A
$$

ABBREVIATIONS USED IN REMARKS
   TC - TEMPERATURE IN CELSIUS
  WCI - WIND CHILL INDEX
   HX - HEAT INDEX
  VSB - VISIBILITY
$$




USA.gov is the U.S. government's official web portal to all federal, state and local government web resources and services.